Regional Weather Roundup
Issued by NWS Kansas City/Pleasant Hill, MO

Home | Current Version | Previous Version | Text Only | Print | Product List | Glossary On
Versions: 1 2 3 4 5 6 7 8 9 10 11 12 13 14 15 16 17 18 19 20 21 22 23 24 25 26 27 28 29 30 31 32 33 34 35 36 37 38 39 40 41 42 43 44 45 46 47 48 49 50
000
ASUS43 KEAX 101510
RWREAX

WEATHER ROUNDUP FOR EASTERN KANSAS AND NORTHWEST MISSOURI
NATIONAL WEATHER SERVICE KANSAS CITY/PLEASANT HILL MO
900 AM CST MON DEC 10 2018

KSZ040-057-103>105-MOZ028-029-037-043-101600-
...KANSAS CITY METROPOLITAN AREA...

CITY           SKY/WX    TMP DP  RH WIND       PRES   REMARKS
K.C. INTL      MOSUNNY   25  21  85 S5        30.34R WCI  19
K.C. DOWNTOWN  SUNNY     26  22  84 CALM      30.36R
LEES SUMMIT    SUNNY     26  21  81 SW5       30.35R WCI  20
OLATHE - IXD   SUNNY     25  20  81 S6        30.35R WCI  18
OLATHE - OJC   SUNNY     24  21  88 S3        30.34R
LAWRENCE       SUNNY     22  19  89 CALM      30.36R FOG

$$

MOZ001>008-011>017-020>025-030>033-038>040-044>046-053-054-101600-
...NORTHERN AND CENTRAL MISSOURI...

CITY           SKY/WX    TMP DP  RH WIND       PRES   REMARKS
ST. JOSEPH     MOSUNNY   20  20 100 CALM      30.36R FOG
MOSBY          SUNNY     19  18  93 CALM      30.36R
WARRENSBURG    SUNNY     23  21  93 CALM      30.37R
WHITEMAN AFB   MOSUNNY   24  21  88 SW3       30.32R FOG
CLINTON        SUNNY     23  19  86 CALM      30.37R FOG
SEDALIA        SUNNY     22  21  96 SW3       30.36R FOG
WARSAW         NOT AVBL
CHILLICOTHE      N/A     24  22  91 CALM      30.37R
KIRKSVILLE     SUNNY     24  23  96 W3        30.33R FOG

$$

MOZ041-047>049-056>058-063>065-088>090-097-101600-
...EASTERN AND SOUTHERN MISSOURI...

CITY           SKY/WX    TMP DP  RH WIND       PRES   REMARKS
ST. LOUIS INTL MOSUNNY   23  21  92 W3        30.36R FOG
SPIRIT OF STL  SUNNY     20  19  96 W3        30.37R FOG
COLUMBIA       CLOUDY    25  20  81 CALM      30.35R
JEFFERSON CITY CLOUDY    20  18  92 CALM      30.38R FOG
ROLLA          CLOUDY    26  21  81 CALM      30.34R HAZE
OSAGE BEACH    MOSUNNY   22  20  92 CALM      30.37R
SPRINGFIELD    MOSUNNY   23  19  85 SW5       30.34R FOG     WCI  17
BRANSON        PTSUNNY   25  21  86 CALM      30.35R
JOPLIN         SUNNY     28  21  75 CALM      30.37R
WEST PLAINS    CLOUDY    25  19  78 N3        30.33R

$$

IAZ060-094-KSZ022-034>040-054-083-096-NEZ052-066-093-101600-
...KANSAS...SOUTHEAST NEBRASKA AND IOWA...

CITY           SKY/WX    TMP DP  RH WIND       PRES   REMARKS
TOPEKA         SUNNY     23  20  88 NW3       30.36R FOG
MANHATTAN      SUNNY     22  19  89 S3        30.35R
EMPORIA        SUNNY     23  22  96 W5        30.33R WCI  17
CHANUTE        SUNNY     27  22  81 SE5       30.36R WCI  22
WICHITA        SUNNY     26  21  81 N9        30.35R WCI  17
OMAHA          CLOUDY    16   9  74 SE6       30.31S FOG     WCI   7
LINCOLN        MOSUNNY   16  14  92 S5        30.31S WCI   9
FALLS CITY     CLOUDY    18  15  88 NW3       30.34S
LAMONI         SUNNY     22  19  89 W7        30.30S FOG     WCI  13
DES MOINES     MOSUNNY   19  16  88 NW5       30.31R FOG     WCI  12

$$




USA.gov is the U.S. government's official web portal to all federal, state and local government web resources and services.